WB0RXX Weather Reports


Display with metric or nautical units.
time (UTC)temp
F
wind
direction
speed
MPH
gust
MPH
rain 1hr
in
rain 24hr
in
rain mn
in
humidity
%
barometer
mb
20260508064004 46 186 0.0 0.0 0.00 0.00 0.00 48 1009.1
20260508063004 46 186 0.0 0.0 0.00 0.00 0.00 48 1009.1
20260508062004 46 186 0.0 0.0 0.00 0.00 0.00 47 1009.1
20260508061004 46 186 0.0 2.0 0.00 0.00 0.00 47 1009.1
20260508060018 46 181 1.0 4.0 0.00 0.00 0.00 47 1009.0
20260508055019 46 176 0.0 0.0 0.00 0.00 0.00 46 1009.1
20260508054003 46 154 0.0 0.0 0.00 0.00 0.00 46 1009.1
20260508053019 46 153 0.0 2.0 0.00 0.00 0.00 46 1009.2
20260508052003 46 153 1.0 2.0 0.00 0.00 0.00 46 1009.4
20260508051004 46 355 0.0 1.0 0.00 0.00 0.00 47 1009.4
20260508050007 47 355 0.0 0.0 0.00 0.00 0.00 45 1009.3
20260508045003 48 355 0.0 1.0 0.00 0.00 0.00 44 1009.4
20260508044004 48 355 0.0 2.0 0.00 0.00 0.00 44 1009.5
20260508043003 48 355 0.0 0.0 0.00 0.00 0.00 43 1009.7
20260508042004 49 355 0.0 1.0 0.00 0.00 0.00 44 1009.6
20260508041020 49 355 0.0 0.0 0.00 0.00 0.00 43 1009.6
20260508040004 49 355 0.0 0.0 0.00 0.00 0.00 43 1009.7
20260508035005 50 355 0.0 0.0 0.00 0.00 0.00 42 1009.8
20260508034003 50 355 0.0 0.0 0.00 0.00 0.00 43 1009.8
20260508033005 50 355 0.0 0.0 0.00 0.00 0.00 42 1009.9
20260508032004 50 355 0.0 0.0 0.00 0.00 0.00 43 1010.0
20260508031003 51 355 0.0 0.0 0.00 0.00 0.00 42 1009.9
20260508030004 51 355 0.0 0.0 0.00 0.00 0.00 42 1009.9
20260508025004 52 355 0.0 0.0 0.00 0.00 0.00 41 1009.9
20260508024003 52 355 0.0 0.0 0.00 0.00 0.00 39 1010.0
20260508023019 53 355 0.0 0.0 0.00 0.00 0.00 37 1009.9
20260508022004 54 355 0.0 0.0 0.00 0.00 0.00 38 1009.9
20260508021004 55 355 0.0 0.0 0.00 0.00 0.00 37 1009.9
20260508020004 56 355 0.0 0.0 0.00 0.00 0.00 35 1009.7
20260508015003 56 355 0.0 0.0 0.00 0.00 0.00 33 1009.8
20260508014004 57 355 0.0 0.0 0.00 0.00 0.00 32 1009.7
20260508013004 58 355 0.0 0.0 0.00 0.00 0.00 31 1009.7
20260508012004 58 355 0.0 0.0 0.00 0.00 0.00 30 1009.6
20260508011003 59 351 1.0 6.0 0.00 0.00 0.00 30 1009.5
20260508010004 59 350 0.0 2.0 0.00 0.00 0.00 29 1009.6
20260508005004 59 351 3.0 3.0 0.00 0.00 0.00 28 1009.4
20260508004004 60 337 2.0 5.0 0.00 0.00 0.00 28 1009.5
20260508003004 60 340 1.0 4.0 0.00 0.00 0.00 27 1009.4
20260508002002 60 323 2.0 4.0 0.00 0.00 0.00 27 1009.5
20260508001004 60 330 3.0 6.0 0.00 0.00 0.00 27 1009.5
20260508000003 60 337 3.0 4.0 0.00 0.00 0.00 26 1009.5
20260507235002 61 339 3.0 6.0 0.00 0.00 0.00 26 1009.5
20260507234003 61 344 6.0 10.0 0.00 0.00 0.00 25 1009.5
20260507233003 61 327 2.0 9.0 0.00 0.00 0.00 26 1009.5
20260507232003 61 354 2.0 9.0 0.00 0.00 0.00 26 1009.5
20260507231004 62 339 3.0 5.0 0.00 0.00 0.00 25 1009.6
20260507230004 63 349 1.0 5.0 0.00 0.00 0.00 26 1009.5
20260507225003 62 9 4.0 4.0 0.00 0.00 0.00 26 1009.6
20260507224004 62 316 2.0 3.0 0.00 0.00 0.00 27 1009.7
20260507223005 63 350 6.0 10.0 0.00 0.00 0.00 25 1009.7
20260507222005 62 354 4.0 9.0 0.00 0.00 0.00 27 1009.7
20260507221004 62 350 6.0 8.0 0.00 0.00 0.00 25 1009.8
20260507220020 63 298 3.0 8.0 0.00 0.00 0.00 26 1009.9
20260507215003 62 241 7.0 12.0 0.00 0.00 0.00 26 1010.1
20260507214004 63 325 5.0 8.0 0.00 0.00 0.00 27 1010.2
20260507213005 62 338 0.0 2.0 0.00 0.00 0.00 27 1010.2
20260507212019 62 348 4.0 8.0 0.00 0.00 0.00 28 1010.3
20260507211003 62 303 4.0 12.0 0.00 0.00 0.00 27 1010.3
20260507210004 62 263 2.0 6.0 0.00 0.00 0.00 27 1010.4
20260507205005 62 325 3.0 8.0 0.00 0.00 0.00 28 1010.4
20260507204005 62 308 0.0 1.0 0.00 0.00 0.00 30 1010.5
20260507203003 62 332 4.0 11.0 0.00 0.00 0.00 29 1010.5
20260507202004 62 297 2.0 2.0 0.00 0.00 0.00 27 1010.6
20260507201005 61 323 1.0 2.0 0.00 0.00 0.00 30 1010.7
20260507200004 61 306 2.0 4.0 0.00 0.00 0.00 31 1010.8
20260507195004 60 329 4.0 4.0 0.00 0.00 0.00 28 1010.8
20260507194018 60 335 7.0 12.0 0.00 0.00 0.00 29 1010.7
20260507193004 60 287 1.0 2.0 0.00 0.00 0.00 29 1010.9
20260507192004 60 310 4.0 7.0 0.00 0.00 0.00 30 1011.1
20260507191003 59 320 2.0 5.0 0.00 0.00 0.00 31 1011.1
20260507190004 59 312 5.0 8.0 0.00 0.00 0.00 32 1011.3
20260507185003 59 349 4.0 9.0 0.00 0.00 0.00 32 1011.3
20260507184005 58 309 3.0 7.0 0.00 0.00 0.00 32 1011.4
20260507183003 58 324 2.0 4.0 0.00 0.00 0.00 32 1011.5
20260507182004 58 326 4.0 10.0 0.00 0.00 0.00 32 1011.6
20260507181003 57 211 3.0 4.0 0.00 0.00 0.00 32 1011.7
20260507180004 56 230 1.0 4.0 0.00 0.00 0.00 34 1011.6
20260507175018 56 15 1.0 4.0 0.00 0.00 0.00 34 1011.8
20260507174004 56 321 3.0 4.0 0.00 0.00 0.00 33 1012.1
20260507173003 56 267 4.0 9.0 0.00 0.00 0.00 32 1012.2
20260507172003 56 11 1.0 3.0 0.00 0.00 0.00 35 1012.2
20260507171004 55 333 2.0 3.0 0.00 0.00 0.00 32 1012.4
20260507170005 56 278 1.0 3.0 0.00 0.00 0.00 34 1012.5
20260507165004 56 281 0.0 1.0 0.00 0.00 0.00 34 1012.6
20260507164003 55 280 2.0 6.0 0.00 0.00 0.00 34 1012.6
20260507163004 55 205 0.0 2.0 0.00 0.00 0.00 35 1012.6
20260507162004 55 109 0.0 0.0 0.00 0.00 0.00 38 1012.7
20260507161003 54 44 0.0 0.0 0.00 0.00 0.00 35 1012.7
20260507160004 54 51 0.0 0.0 0.00 0.00 0.00 35 1012.8
20260507155004 53 163 0.0 0.0 0.00 0.00 0.00 35 1012.8
20260507154004 53 264 1.0 3.0 0.00 0.00 0.00 36 1012.8
20260507153004 52 186 1.0 1.0 0.00 0.00 0.00 37 1012.8
20260507152004 52 170 0.0 1.0 0.00 0.00 0.00 38 1012.8
20260507151003 52 154 1.0 3.0 0.00 0.00 0.00 37 1012.9
20260507150004 52 201 0.0 1.0 0.00 0.00 0.00 39 1012.9
20260507145003 50 231 0.0 0.0 0.00 0.00 0.00 42 1012.9
20260507144019 49 226 0.0 0.0 0.00 0.00 0.00 45 1012.9
20260507143004 48 225 0.0 1.0 0.00 0.00 0.00 49 1013.0
20260507142019 47 184 3.0 4.0 0.00 0.00 0.00 47 1013.1
20260507141004 46 232 0.0 0.0 0.00 0.00 0.00 55 1013.1
20260507140003 46 213 2.0 4.0 0.00 0.00 0.00 56 1013.0
20260507135003 44 207 0.0 1.0 0.00 0.00 0.00 59 1012.9
20260507134003 43 186 1.0 2.0 0.00 0.00 0.00 63 1013.0
20260507133018 41 199 2.0 4.0 0.00 0.00 0.00 67 1012.9
20260507132004 40 216 0.0 2.0 0.00 0.00 0.00 70 1013.0
20260507131004 39 163 0.0 0.0 0.00 0.00 0.00 71 1012.8
20260507130003 37 163 0.0 2.0 0.00 0.00 0.00 73 1012.8
20260507125004 36 163 1.0 4.0 0.00 0.00 0.00 74 1012.9
20260507124019 35 163 0.0 0.0 0.00 0.00 0.00 75 1012.9
20260507123004 35 163 0.0 1.0 0.00 0.00 0.00 77 1013.0
20260507122018 34 163 0.0 1.0 0.00 0.00 0.00 78 1012.9
20260507121004 33 163 0.0 0.0 0.00 0.00 0.00 78 1012.8
20260507120018 32 163 0.0 0.0 0.00 0.00 0.00 79 1012.7
20260507115019 32 163 0.0 0.0 0.00 0.00 0.00 79 1012.8
20260507114003 32 163 0.0 0.0 0.00 0.00 0.00 78 1012.7
20260507113004 32 163 0.0 0.0 0.00 0.00 0.00 78 1012.7
20260507112004 32 163 0.0 0.0 0.00 0.00 0.00 78 1012.9
20260507111018 32 163 0.0 0.0 0.00 0.00 0.00 77 1012.9
20260507110004 32 163 0.0 0.0 0.00 0.00 0.00 76 1012.9
20260507105005 33 163 0.0 0.0 0.00 0.00 0.00 76 1012.9
20260507104005 32 163 0.0 0.0 0.00 0.00 0.00 76 1012.9
20260507103003 32 163 0.0 0.0 0.00 0.00 0.00 75 1012.9
20260507102003 33 163 0.0 0.0 0.00 0.00 0.00 74 1013.0
20260507101004 33 163 0.0 0.0 0.00 0.00 0.00 73 1013.1
20260507100005 33 163 0.0 0.0 0.00 0.00 0.00 73 1013.2
20260507095003 33 163 0.0 0.0 0.00 0.00 0.00 73 1013.2
20260507094005 33 163 1.0 0.0 0.00 0.00 0.00 73 1013.3
20260507093003 33 175 0.0 0.0 0.00 0.00 0.00 74 1013.4
20260507092003 33 175 0.0 0.0 0.00 0.00 0.00 74 1013.4
20260507091005 33 175 0.0 0.0 0.00 0.00 0.00 75 1013.4
20260507090003 33 15 0.0 0.0 0.00 0.00 0.00 76 1013.5
20260507085005 33 15 0.0 1.0 0.00 0.00 0.00 77 1013.6
20260507084003 33 15 0.0 0.0 0.00 0.00 0.00 79 1013.5
20260507083005 34 15 0.0 0.0 0.00 0.00 0.00 78 1013.7
20260507082003 34 15 0.0 0.0 0.00 0.00 0.00 78 1013.7
20260507081005 34 15 0.0 0.0 0.00 0.00 0.00 74 1013.6
20260507080003 33 15 0.0 0.0 0.00 0.00 0.00 74 1013.7
20260507075004 33 15 0.0 0.0 0.00 0.00 0.00 74 1013.7
20260507074003 33 15 0.0 0.0 0.00 0.00 0.00 73 1013.6
20260507073004 34 15 0.0 0.0 0.00 0.00 0.00 73 1013.9
20260507072018 34 15 0.0 0.0 0.00 0.00 0.00 73 1014.0
20260507071004 34 15 0.0 0.0 0.00 0.00 0.00 73 1014.2
20260507070005 34 15 0.0 0.0 0.00 0.00 0.00 73 1014.1
20260507065004 34 360 0.0 1.0 0.00 0.00 0.00 72 1014.3